TimeCST,TemperatureF,Dew PointF,Humidity,Sea Level PressureIn,VisibilityMPH,Wind Direction,Wind SpeedMPH,Gust SpeedMPH,PrecipitationIn,Events,Conditions,WindDirDegrees,DateUTC
12:15 AM,34.9,22.8,61,30.17,10.0,NE,6.9,-,N/A,,Overcast,40,2012-11-26 06:15:00
12:35 AM,34.7,22.8,62,30.18,10.0,NNE,4.6,-,N/A,,Overcast,20,2012-11-26 06:35:00
12:55 AM,34.5,22.8,62,30.18,10.0,NNE,5.8,-,N/A,,Overcast,30,2012-11-26 06:55:00
1:15 AM,34.2,23.4,65,30.18,10.0,NNE,4.6,-,N/A,,Overcast,20,2012-11-26 07:15:00
1:35 AM,34.0,23.4,65,30.19,10.0,North,4.6,-,N/A,,Mostly Cloudy,10,2012-11-26 07:35:00
1:55 AM,33.6,23.9,68,30.19,10.0,North,4.6,-,N/A,,Mostly Cloudy,10,2012-11-26 07:55:00
2:15 AM,33.1,23.5,68,30.20,10.0,North,3.5,-,N/A,,Scattered Clouds,10,2012-11-26 08:15:00
2:35 AM,32.4,23.7,70,30.20,10.0,North,6.9,-,N/A,,Scattered Clouds,350,2012-11-26 08:35:00
2:55 AM,33.1,23.9,69,30.21,10.0,North,9.2,-,N/A,,Overcast,360,2012-11-26 08:55:00
3:15 AM,33.4,23.9,68,30.21,10.0,North,9.2,-,N/A,,Overcast,10,2012-11-26 09:15:00
3:35 AM,33.4,23.5,67,30.20,10.0,North,11.5,-,N/A,,Overcast,10,2012-11-26 09:35:00
3:55 AM,33.1,23.4,67,30.20,10.0,NNE,11.5,16.1,N/A,,Overcast,20,2012-11-26 09:55:00
4:15 AM,32.5,22.6,67,30.21,10.0,North,10.4,-,N/A,,Overcast,10,2012-11-26 10:15:00
4:35 AM,32.0,21.9,66,30.22,10.0,NNE,8.1,-,N/A,,Overcast,20,2012-11-26 10:35:00
4:55 AM,32.0,21.2,64,30.22,10.0,NNE,6.9,-,N/A,,Overcast,30,2012-11-26 10:55:00
5:15 AM,32.0,20.1,62,30.23,10.0,NNE,9.2,-,N/A,,Overcast,20,2012-11-26 11:15:00
5:35 AM,32.0,19.2,59,30.24,10.0,NNE,8.1,-,N/A,,Overcast,20,2012-11-26 11:35:00
5:55 AM,31.6,18.3,58,30.25,10.0,NNE,6.9,-,N/A,,Overcast,20,2012-11-26 11:55:00
6:15 AM,31.6,18.3,58,30.25,10.0,NNE,3.5,-,N/A,,Overcast,20,2012-11-26 12:15:00
6:35 AM,31.5,17.8,57,30.26,10.0,North,9.2,-,N/A,,Overcast,10,2012-11-26 12:35:00
6:55 AM,31.1,16.7,55,30.27,10.0,NNE,9.2,-,N/A,,Overcast,20,2012-11-26 12:55:00
7:15 AM,30.9,16.9,56,30.28,10.0,North,6.9,-,N/A,,Overcast,360,2012-11-26 13:15:00
7:35 AM,30.9,17.2,57,30.29,10.0,North,6.9,-,N/A,,Overcast,360,2012-11-26 13:35:00
7:55 AM,30.9,17.4,57,30.31,10.0,North,11.5,-,N/A,,Overcast,360,2012-11-26 13:55:00
8:15 AM,30.9,17.2,57,30.32,10.0,North,11.5,-,N/A,,Overcast,360,2012-11-26 14:15:00
8:35 AM,30.7,17.2,57,30.33,10.0,North,13.8,-,N/A,,Overcast,360,2012-11-26 14:35:00
8:55 AM,30.7,17.1,57,30.33,10.0,North,12.7,17.3,N/A,,Overcast,10,2012-11-26 14:55:00
9:15 AM,30.7,16.9,56,30.34,10.0,North,15.0,-,N/A,,Overcast,360,2012-11-26 15:15:00
9:35 AM,30.9,18.3,60,30.36,10.0,North,17.3,20.7,N/A,,Mostly Cloudy,350,2012-11-26 15:35:00
9:55 AM,30.0,17.2,59,30.37,10.0,North,17.3,21.9,N/A,,Clear,350,2012-11-26 15:55:00
10:15 AM,29.3,16.5,59,30.38,10.0,North,20.7,-,N/A,,Clear,360,2012-11-26 16:15:00
10:35 AM,29.5,15.4,56,30.39,10.0,NNW,19.6,-,N/A,,Clear,340,2012-11-26 16:35:00
10:55 AM,28.4,14.0,55,30.39,10.0,NNW,17.3,20.7,N/A,,Clear,340,2012-11-26 16:55:00
11:15 AM,28.0,12.2,52,30.39,10.0,North,12.7,-,N/A,,Clear,350,2012-11-26 17:15:00
11:35 AM,28.9,12.0,49,30.39,10.0,NNW,13.8,19.6,N/A,,Clear,340,2012-11-26 17:35:00
11:55 AM,28.6,10.6,47,30.39,10.0,NNW,16.1,-,N/A,,Clear,340,2012-11-26 17:55:00
12:15 PM,29.3,11.7,48,30.40,10.0,NNW,16.1,-,N/A,,Scattered Clouds,330,2012-11-26 18:15:00
12:35 PM,28.4,10.2,47,30.40,10.0,NNW,13.8,-,N/A,,Scattered Clouds,340,2012-11-26 18:35:00
12:55 PM,29.5,9.0,42,30.40,10.0,NNW,16.1,20.7,N/A,,Clear,340,2012-11-26 18:55:00
1:15 PM,28.9,7.3,40,30.39,10.0,North,19.6,-,N/A,,Clear,350,2012-11-26 19:15:00
1:35 PM,28.6,7.0,40,30.39,10.0,NNW,17.3,-,N/A,,Clear,340,2012-11-26 19:35:00
1:55 PM,28.6,7.3,41,30.39,10.0,NNW,13.8,-,N/A,,Clear,340,2012-11-26 19:55:00
2:15 PM,28.2,7.0,41,30.39,10.0,NNW,16.1,-,N/A,,Clear,330,2012-11-26 20:15:00
2:35 PM,28.2,7.0,41,30.38,10.0,North,16.1,20.7,N/A,,Clear,360,2012-11-26 20:35:00
2:55 PM,28.8,6.8,40,30.39,10.0,NNW,13.8,-,N/A,,Clear,340,2012-11-26 20:55:00
3:15 PM,29.1,7.0,39,30.39,10.0,NNW,13.8,19.6,N/A,,Clear,330,2012-11-26 21:15:00
3:35 PM,28.8,7.0,40,30.39,10.0,NNW,9.2,-,N/A,,Clear,340,2012-11-26 21:35:00
3:55 PM,28.9,7.2,40,30.39,10.0,North,9.2,-,N/A,,Clear,350,2012-11-26 21:55:00
4:15 PM,28.2,7.2,41,30.40,10.0,NNW,11.5,-,N/A,,Clear,340,2012-11-26 22:15:00
4:35 PM,27.3,7.3,43,30.40,10.0,North,10.4,-,N/A,,Clear,350,2012-11-26 22:35:00
4:55 PM,26.1,7.5,46,30.40,10.0,NNW,9.2,-,N/A,,Clear,340,2012-11-26 22:55:00
5:15 PM,24.6,7.5,48,30.41,10.0,North,6.9,-,N/A,,Clear,350,2012-11-26 23:15:00
5:35 PM,23.9,7.5,50,30.41,10.0,NNW,5.8,-,N/A,,Clear,340,2012-11-26 23:35:00
5:55 PM,22.6,7.7,53,30.41,10.0,NNW,5.8,-,N/A,,Clear,340,2012-11-26 23:55:00
6:15 PM,21.6,7.9,56,30.41,10.0,NNW,4.6,-,N/A,,Clear,340,2012-11-27 00:15:00
6:35 PM,20.7,7.9,58,30.43,10.0,NW,4.6,-,N/A,,Clear,320,2012-11-27 00:35:00
6:55 PM,21.2,8.1,57,30.44,10.0,NW,4.6,-,N/A,,Clear,310,2012-11-27 00:55:00
7:15 PM,20.1,8.1,60,30.43,10.0,NW,3.5,-,N/A,,Clear,310,2012-11-27 01:15:00
7:35 PM,20.8,7.7,57,30.43,10.0,NW,3.5,-,N/A,,Clear,320,2012-11-27 01:35:00
7:55 PM,20.5,7.7,58,30.44,10.0,NW,3.5,-,N/A,,Clear,320,2012-11-27 01:55:00
8:15 PM,16.9,7.3,66,30.43,10.0,NW,3.5,-,N/A,,Clear,320,2012-11-27 02:15:00
8:35 PM,17.2,7.7,66,30.43,10.0,Calm,Calm,-,N/A,,Clear,0,2012-11-27 02:35:00
8:55 PM,18.0,8.1,65,30.44,10.0,Calm,Calm,-,N/A,,Clear,0,2012-11-27 02:55:00
9:15 PM,16.2,7.3,68,30.44,10.0,Calm,Calm,-,N/A,,Clear,0,2012-11-27 03:15:00
9:35 PM,16.5,7.7,68,30.44,10.0,Calm,Calm,-,N/A,,Clear,0,2012-11-27 03:35:00
9:55 PM,14.5,7.5,74,30.44,10.0,West,3.5,-,N/A,,Clear,280,2012-11-27 03:55:00
10:15 PM,15.1,7.7,73,30.43,10.0,West,3.5,-,N/A,,Clear,280,2012-11-27 04:15:00
10:35 PM,14.2,7.7,75,30.43,10.0,West,8.1,-,N/A,,Clear,270,2012-11-27 04:35:00
10:55 PM,12.6,6.4,77,30.43,10.0,SW,5.8,-,N/A,,Clear,220,2012-11-27 04:55:00
11:15 PM,13.1,7.5,78,30.43,10.0,WSW,6.9,-,N/A,,Clear,240,2012-11-27 05:15:00
11:35 PM,14.0,7.7,76,30.43,10.0,WSW,6.9,-,N/A,,Clear,250,2012-11-27 05:35:00
11:55 PM,13.1,7.2,77,30.43,10.0,WSW,6.9,-,N/A,,Clear,250,2012-11-27 05:55:00